Location: Observatorio Las Palmas
(29.0667°N, 110.9333°W)
Time: 15:10:34
(UTC-07:00)

Skynet4D Del rocket - Visible Passes

Search period start: 21 September 2014 00:00
Search period end: 01 October 2014 00:00
Orbit: 763 x 1291 km, 26.9° (Epoch: 17 September)

Date Brightness Start Highest point End Pass type
(mag) Time Alt. Az. Time Alt. Az. Time Alt. Az.
21 Sep 6.2 04:55:11 10° SSW 04:59:46 17° SSE 05:04:02 10° ESE visible
22 Sep 6.5 03:46:30 10° SSE 03:48:31 11° SSE 03:50:29 10° SE visible
22 Sep 5.5 05:34:48 10° SW 05:41:08 31° SSE 05:46:47 10° E visible
23 Sep 5.9 04:25:35 14° SSW 04:29:53 22° SSE 04:35:08 10° ESE visible
24 Sep 6.4 03:19:03 15° SSE 03:19:03 15° SSE 03:22:36 10° ESE visible
24 Sep 5.3 05:04:42 12° SW 05:11:15 37° SSE 05:17:29 10° E visible
25 Sep 5.7 03:58:08 25° S 03:59:55 28° SSE 04:05:58 10° E visible
25 Sep 4.8 05:45:13 10° WSW 05:52:41 55° SSE 05:59:13 10° E visible
26 Sep 6.5 02:51:31 16° SE 02:51:31 16° SE 02:53:46 10° ESE visible
26 Sep 5.1 04:37:10 25° SW 04:41:19 44° SSE 04:48:04 10° E visible
27 Sep 5.5 03:30:30 33° SSE 03:30:30 33° SSE 03:36:34 10° E visible
27 Sep 4.6 05:16:09 15° WSW 05:22:47 61° SSE 05:29:43 10° E visible
28 Sep 6.8 02:23:49 12° ESE 02:23:49 12° ESE 02:24:32 10° ESE visible
28 Sep 4.9 04:09:27 43° SSW 04:11:18 50° SSE 04:18:31 10° E visible
29 Sep 5.8 03:02:43 30° ESE 03:02:43 30° ESE 03:07:00 10° E visible
29 Sep 4.6 04:48:21 29° WSW 04:52:49 67° S 05:00:08 10° E visible
30 Sep 4.8 03:41:36 56° SSE 03:41:36 56° SSE 03:48:51 10° E visible
30 Sep 4.5 05:27:14 14° W 05:34:25 76° S 05:41:39 10° E visible
